Miami, FL

12:34 PM EST on December 05, 2019 (GMT -0500)
Miami International

Weather History for KMIA - November, 2019

Change the Weather History Date:

Tuesday, November 12, 2019

  Actual Average Record
Temperature  
Mean Temperature 80 °F 75 °F  
Max Temperature 88 °F 82 °F 89 °F (2002)
Min Temperature 71 °F 69 °F 50 °F (1913)
Degree Days  
Heating Degree Days 0 0  
Month to date heating degree days 0 0  
Since 1 July heating degree days 0 0  
Cooling Degree Days 15 10  
Month to date cooling degree days 193 136  
Year to date cooling degree days 4864 4208  
Growing Degree Days 30 (Base 50)    
Moisture  
Dew Point 65 °F    
Average Humidity 60    
Maximum Humidity 79    
Minimum Humidity 40    
Precipitation  
Precipitation T in 0.12 in 4.15 in (1954)
Month to date precipitation 0.37 1.56  
Year to date precipitation 59.47 58.15  
Snow  
Snow 0.00 in - - ()
Month to date snowfall 0.0  
Since 1 July snowfall 0.0  
Since 1 September snowfall 0.0  
Snow Depth 0.00 in    
Sea Level Pressure  
Sea Level Pressure 29.95 in    
Wind  
Wind Speed 3 mph (WSW)    
Max Wind Speed 13 mph    
Max Gust Speed 17 mph    
Visibility 10 miles    
Events      
T = Trace of Precipitation, MM = Missing Value Source: NWS Daily Summary

Daily Weather History Graph

Daily Weather History Graph

Search for Another Location

Airport or City:

Astronomy

Nov. 12, 2019 Rise Set
Actual Time 6:36 AM EST 5:33 PM EST
Civil Twilight 6:12 AM EST 5:57 PM EST
Nautical Twilight 5:44 AM EST 6:25 PM EST
Astronomical Twilight 5:17 AM EST 6:52 PM EST
Moon 5:57 PM EST (11/12) 6:31 AM EST (11/12)
Length of Visible Light 11h 45m
Length of Day
10h 56m
Full, 100% of the Moon is Illuminated
Nov 12
Full
Nov 19
Last Quarter
Nov 26
New
Dec 4
First Quarter
Dec 12
Full

Hourly Weather History & Observations

Time (EST) Temp. Heat Index Dew Point Humidity Pressure Visibility Wind Dir Wind Speed Gust Speed Precip Events Conditions
12:53 AM 73.0 °F - 64.0 °F 73% 29.99 in 10.0 mi Calm Calm - N/A   Partly Cloudy
1:53 AM 75.0 °F - 64.0 °F 69% 29.97 in 10.0 mi Calm Calm - N/A   Mostly Cloudy
2:53 AM 75.0 °F - 68.0 °F 79% 29.96 in 10.0 mi Calm Calm - 0.00 in   Mostly Cloudy
3:53 AM 73.0 °F - 66.9 °F 81% 29.94 in 10.0 mi Calm Calm - N/A   Mostly Cloudy
4:53 AM 73.9 °F - 66.9 °F 79% 29.95 in 10.0 mi NNW 3.5 mph - N/A   Mostly Cloudy
5:53 AM 73.0 °F - 66.9 °F 81% 29.96 in 10.0 mi Calm Calm - N/A   Mostly Cloudy
6:53 AM 73.0 °F - 66.9 °F 81% 29.97 in 10.0 mi Calm Calm - N/A   Mostly Cloudy
7:53 AM 78.1 °F - 68.0 °F 71% 29.97 in 10.0 mi Calm Calm - N/A   Mostly Cloudy
8:53 AM 81.0 °F 83.3 °F 66.9 °F 62% 29.98 in 10.0 mi Variable 3.5 mph - N/A   Mostly Cloudy
9:53 AM 82.0 °F 83.4 °F 64.0 °F 54% 29.99 in 10.0 mi SSW 4.6 mph - N/A   Mostly Cloudy
10:53 AM 82.0 °F 83.1 °F 63.0 °F 52% 29.98 in 10.0 mi Calm Calm - N/A   Mostly Cloudy
11:53 AM 84.0 °F 84.9 °F 63.0 °F 49% 29.96 in 10.0 mi Variable 3.5 mph - 0.00 in   Mostly Cloudy
12:53 PM 84.0 °F 84.4 °F 61.0 °F 46% 29.94 in 10.0 mi Calm Calm - N/A   Scattered Clouds
1:53 PM 87.1 °F 87.0 °F 61.0 °F 41% 29.90 in 10.0 mi Variable 4.6 mph - N/A   Mostly Cloudy
2:53 PM 84.9 °F 84.4 °F 59.0 °F 41% 29.89 in 10.0 mi NW 4.6 mph - N/A   Mostly Cloudy
3:53 PM 82.9 °F 85.0 °F 66.0 °F 56% 29.89 in 10.0 mi SE 10.4 mph - N/A   Scattered Clouds
4:53 PM 81.0 °F 83.0 °F 66.0 °F 60% 29.89 in 10.0 mi SE 8.1 mph - N/A   Overcast
5:53 PM 80.1 °F 82.1 °F 66.0 °F 62% 29.90 in 10.0 mi South 6.9 mph - N/A   Mostly Cloudy
6:53 PM 80.1 °F 82.3 °F 66.9 °F 64% 29.91 in 10.0 mi SSE 6.9 mph - N/A   Overcast
7:53 PM 79.0 °F - 66.0 °F 64% 29.92 in 10.0 mi SW 4.6 mph - N/A   Overcast
8:53 PM 78.1 °F - 64.9 °F 64% 29.94 in 10.0 mi West 4.6 mph - N/A   Scattered Clouds
9:53 PM 77.0 °F - 64.9 °F 66% 29.96 in 10.0 mi WNW 3.5 mph - N/A   Scattered Clouds
10:53 PM 75.9 °F - 64.0 °F 67% 29.95 in 10.0 mi WNW 3.5 mph - N/A   Mostly Cloudy
11:53 PM 73.9 °F - 63.0 °F 68% 29.94 in 10.0 mi West 4.6 mph - N/A   Mostly Cloudy